TAP012 EGKK-LPPR

Flight info

Callsign TAP012
Flight time N/A
Altitude 27000
Route IMVUR N63 SAM M195 IBNID/N0460F290 M195 LORKU DCT POZOF DCT LOTEE DCT ELTEP/N0412F230 T328 ASPOR
Aircraft B77W/H-SDE1E2E3FGHIJ2J3J4J5M1RWXY/LB1D1

Departure

Time 2026-05-04 16:06
Airport London Gatwick Airport (EGKK)

Arrival

Time N/A
Airport Francisco de Sá Carneiro Airport (LPPR)
Time Latitude Longitude Altitude Speed Heading
2026-05-04 14:40 51.16243 -0.18090 218 ft 0 kts 78°
2026-05-04 15:47 51.16240 -0.18115 219 ft 2 kts 78°
2026-05-04 15:48 51.16236 -0.18140 217 ft 2 kts 78°
2026-05-04 15:48 51.16233 -0.18165 217 ft 2 kts 88°
2026-05-04 15:48 51.16242 -0.18214 220 ft 2 kts 139°
2026-05-04 15:49 51.16255 -0.18224 222 ft 0 kts 166°
2026-05-04 15:54 51.16254 -0.18224 208 ft 1 kts 166°
2026-05-04 15:54 51.16244 -0.18220 214 ft 2 kts 166°
2026-05-04 15:54 51.16222 -0.18211 211 ft 4 kts 166°
2026-05-04 15:54 51.16188 -0.18199 214 ft 6 kts 168°
2026-05-04 15:55 51.16143 -0.18184 218 ft 8 kts 167°
2026-05-04 15:55 51.16083 -0.18163 218 ft 10 kts 167°
2026-05-04 15:55 51.16006 -0.18136 216 ft 13 kts 167°
2026-05-04 15:55 51.15911 -0.18103 208 ft 15 kts 167°
2026-05-04 15:56 51.15801 -0.18063 218 ft 17 kts 167°
2026-05-04 15:56 51.15694 -0.18062 220 ft 15 kts 219°
2026-05-04 15:56 51.15666 -0.18202 216 ft 15 kts 256°
2026-05-04 15:56 51.15618 -0.18343 219 ft 16 kts 197°
2026-05-04 15:57 51.15505 -0.18318 217 ft 17 kts 169°
2026-05-04 15:57 51.15394 -0.18278 213 ft 16 kts 166°
2026-05-04 15:57 51.15293 -0.18240 214 ft 12 kts 167°
2026-05-04 15:57 51.15207 -0.18235 220 ft 13 kts 214°
2026-05-04 15:58 51.15178 -0.18382 214 ft 15 kts 258°
2026-05-04 15:58 51.15159 -0.18523 217 ft 0 kts 258°
2026-05-04 15:59 51.15158 -0.18535 215 ft 3 kts 258°
2026-05-04 15:59 51.15150 -0.18590 208 ft 7 kts 257°
2026-05-04 15:59 51.15135 -0.18699 210 ft 13 kts 257°
2026-05-04 16:00 51.15111 -0.18867 217 ft 18 kts 257°
2026-05-04 16:00 51.15085 -0.19060 219 ft 18 kts 257°
2026-05-04 16:00 51.15041 -0.19239 213 ft 17 kts 214°
2026-05-04 16:00 51.14954 -0.19359 219 ft 18 kts 251°
2026-05-04 16:01 51.14920 -0.19580 212 ft 23 kts 257°
2026-05-04 16:01 51.14884 -0.19850 221 ft 28 kts 259°
2026-05-04 16:01 51.14841 -0.20178 218 ft 33 kts 257°
2026-05-04 16:01 51.14789 -0.20537 214 ft 32 kts 258°
2026-05-04 16:02 51.14766 -0.20707 215 ft 10 kts 258°
2026-05-04 16:02 51.14752 -0.20811 217 ft 10 kts 258°
2026-05-04 16:02 51.14724 -0.21022 217 ft 10 kts 258°
2026-05-04 16:03 51.14709 -0.21127 214 ft 10 kts 257°
2026-05-04 16:03 51.14694 -0.21233 218 ft 10 kts 257°
2026-05-04 16:03 51.14661 -0.21321 220 ft 10 kts 207°
2026-05-04 16:03 51.14651 -0.21325 213 ft 0 kts 192°
2026-05-04 16:04 51.14606 -0.21323 214 ft 7 kts 173°
2026-05-04 16:04 51.14552 -0.21288 217 ft 10 kts 140°
2026-05-04 16:05 51.14524 -0.21180 212 ft 12 kts 89°
2026-05-04 16:05 51.14529 -0.21108 214 ft 0 kts 77°
2026-05-04 16:05 51.14647 -0.20243 216 ft 105 kts 77°
2026-05-04 16:06 51.14856 -0.18771 216 ft 164 kts 76°
2026-05-04 16:06 51.15647 -0.13282 1312 ft 211 kts 78°
2026-05-04 16:07 51.16085 -0.10165 2135 ft 217 kts 75°
2026-05-04 16:07 51.18466 -0.04037 3337 ft 221 kts 34°
2026-05-04 16:08 51.19886 -0.03108 3530 ft 226 kts
2026-05-04 16:08 51.23085 -0.08260 3096 ft 264 kts 261°
2026-05-04 16:09 51.22087 -0.13816 3838 ft 263 kts 262°
2026-05-04 16:09 51.21559 -0.19691 3995 ft 270 kts 262°
2026-05-04 16:10 51.21058 -0.24564 3999 ft 265 kts 261°
2026-05-04 16:11 51.20054 -0.33339 5869 ft 269 kts 260°
2026-05-04 16:11 51.19696 -0.36286 6659 ft 272 kts 259°
2026-05-04 16:12 51.18531 -0.45265 8804 ft 281 kts 258°
2026-05-04 16:12 51.17241 -0.54615 10502 ft 304 kts 250°
2026-05-04 16:13 51.15477 -0.61295 10879 ft 350 kts 245°
2026-05-04 16:13 51.13399 -0.68683 11953 ft 375 kts 245°
2026-05-04 16:14 51.11297 -0.76392 13786 ft 383 kts 246°
2026-05-04 16:14 51.09169 -0.84290 15423 ft 392 kts 246°
2026-05-04 16:15 51.05899 -0.96396 17850 ft 405 kts 245°
2026-05-04 16:16 51.03682 -1.04562 19283 ft 413 kts 245°
2026-05-04 16:16 51.00239 -1.17205 21561 ft 419 kts 245°
2026-05-04 16:17 50.97894 -1.25781 22946 ft 426 kts 245°
2026-05-04 16:18 50.92820 -1.37253 24642 ft 432 kts 220°
2026-05-04 16:18 50.90391 -1.40061 25244 ft 432 kts 213°
2026-05-04 16:19 50.82760 -1.47827 26951 ft 437 kts 212°
2026-05-04 16:19 50.77630 -1.53098 27923 ft 442 kts 212°
2026-05-04 16:20 50.69863 -1.61136 29276 ft 448 kts 211°
2026-05-04 16:20 50.64665 -1.66506 30345 ft 445 kts 211°
2026-05-04 16:21 50.56848 -1.74548 31368 ft 449 kts 211°
2026-05-04 16:22 50.51597 -1.79929 32023 ft 451 kts 211°
2026-05-04 16:22 50.43678 -1.87960 32939 ft 457 kts 211°
2026-05-04 16:23 50.35647 -1.96077 33911 ft 459 kts 211°
2026-05-04 16:25 50.19570 -2.12145 33994 ft 456 kts 210°
2026-05-04 16:26 50.00662 -2.30474 33995 ft 458 kts 210°
2026-05-04 16:28 49.86688 -2.42164 33999 ft 458 kts 202°
2026-05-04 16:29 49.66316 -2.56243 33989 ft 457 kts 203°
2026-05-04 16:31 49.51834 -2.66245 33994 ft 456 kts 203°
2026-05-04 16:32 49.34401 -2.78194 33994 ft 459 kts 202°
2026-05-04 16:33 49.22742 -2.86135 33984 ft 461 kts 202°
2026-05-04 16:34 49.13937 -2.92105 33983 ft 461 kts 202°
2026-05-04 16:35 48.96421 -3.03912 33977 ft 460 kts 202°
2026-05-04 16:36 48.87668 -3.09777 33987 ft 460 kts 202°
2026-05-04 16:37 48.78839 -3.15670 33994 ft 463 kts 202°
2026-05-04 16:38 48.67038 -3.23513 33988 ft 465 kts 202°
2026-05-04 16:39 48.52198 -3.33319 33981 ft 465 kts 202°
2026-05-04 16:40 48.40345 -3.41106 33972 ft 464 kts 202°
2026-05-04 16:41 48.25565 -3.50758 33975 ft 465 kts 202°
2026-05-04 16:43 48.10664 -3.60430 33961 ft 466 kts 202°
2026-05-04 16:43 48.01730 -3.66200 33964 ft 466 kts 202°
2026-05-04 16:45 47.83921 -3.77635 33976 ft 465 kts 202°
2026-05-04 16:46 47.69062 -3.87110 33984 ft 464 kts 201°
2026-05-04 16:47 47.57179 -3.94646 33975 ft 464 kts 201°
2026-05-04 16:48 47.45394 -4.02083 33970 ft 464 kts 201°
2026-05-04 16:49 47.33523 -4.09538 33977 ft 464 kts 201°
2026-05-04 16:50 47.21669 -4.16946 33970 ft 465 kts 201°
2026-05-04 16:51 47.12725 -4.22512 33975 ft 466 kts 201°
2026-05-04 16:52 47.00827 -4.30108 33983 ft 467 kts 203°
2026-05-04 16:53 46.92022 -4.36221 33978 ft 466 kts 203°
2026-05-04 16:54 46.80321 -4.44226 33973 ft 465 kts 203°
2026-05-04 16:55 46.63732 -4.55444 33980 ft 463 kts 203°
2026-05-04 16:56 46.49115 -4.65269 33981 ft 463 kts 203°
2026-05-04 16:57 46.40334 -4.71143 33976 ft 463 kts 203°
2026-05-04 16:58 46.28653 -4.78926 33977 ft 463 kts 203°
2026-05-04 17:00 46.11105 -4.90547 33978 ft 463 kts 204°
2026-05-04 17:01 45.96562 -5.00118 33983 ft 462 kts 204°
2026-05-04 17:02 45.84915 -5.07742 33977 ft 461 kts 204°
2026-05-04 17:03 45.76158 -5.13451 33989 ft 460 kts 204°
2026-05-04 17:03 45.67419 -5.19129 33980 ft 461 kts 204°
2026-05-04 17:04 45.55740 -5.26687 33979 ft 460 kts 204°
2026-05-04 17:05 45.44073 -5.34203 33978 ft 460 kts 204°
2026-05-04 17:06 45.35326 -5.39815 33982 ft 459 kts 204°
2026-05-04 17:07 45.27572 -5.44774 33982 ft 460 kts 204°
2026-05-04 17:07 45.20789 -5.49100 33982 ft 460 kts 204°
2026-05-04 17:08 45.12005 -5.54686 33986 ft 461 kts 204°
2026-05-04 17:09 45.06137 -5.58406 33987 ft 462 kts 204°
2026-05-04 17:09 45.00298 -5.62101 33986 ft 462 kts 204°
2026-05-04 17:10 44.85617 -5.71353 34001 ft 462 kts 204°
2026-05-04 17:11 44.79725 -5.75051 33991 ft 463 kts 205°
2026-05-04 17:12 44.70900 -5.80577 33992 ft 465 kts 205°
2026-05-04 17:13 44.57119 -5.92335 34000 ft 465 kts 216°
2026-05-04 17:14 44.46623 -6.02778 33994 ft 465 kts 215°
2026-05-04 17:15 44.38721 -6.10557 33998 ft 464 kts 216°
2026-05-04 17:16 44.28134 -6.20936 34004 ft 466 kts 216°
2026-05-04 17:17 44.17502 -6.31316 34007 ft 466 kts 216°
2026-05-04 17:18 44.06903 -6.41617 34005 ft 466 kts 216°
2026-05-04 17:19 43.96285 -6.51889 34006 ft 465 kts 216°
2026-05-04 17:20 43.85658 -6.62126 34023 ft 465 kts 216°
2026-05-04 17:20 43.77675 -6.69786 34015 ft 465 kts 216°
2026-05-04 17:21 43.67071 -6.79922 34028 ft 464 kts 216°
2026-05-04 17:22 43.61757 -6.84984 34028 ft 464 kts 217°
2026-05-04 17:23 43.51123 -6.95082 34037 ft 464 kts 217°
2026-05-04 17:24 43.43236 -7.02543 34046 ft 464 kts 217°
2026-05-04 17:25 43.32596 -7.12570 34054 ft 463 kts 217°
2026-05-04 17:26 43.22005 -7.22510 34057 ft 462 kts 217°
2026-05-04 17:27 43.08658 -7.34976 34049 ft 465 kts 217°
2026-05-04 17:28 42.98024 -7.44856 34053 ft 462 kts 217°
2026-05-04 17:29 42.82086 -7.59592 34071 ft 461 kts 217°
2026-05-04 17:31 42.68865 -7.71745 33775 ft 452 kts 217°
2026-05-04 17:31 42.60841 -7.78233 32334 ft 444 kts 207°
2026-05-04 17:32 42.55029 -7.80957 31421 ft 440 kts 200°
2026-05-04 17:33 42.46316 -7.84142 30079 ft 428 kts 200°
2026-05-04 17:33 42.43457 -7.85194 29534 ft 424 kts 200°
2026-05-04 17:34 42.35088 -7.88299 28188 ft 407 kts 200°
2026-05-04 17:34 42.32364 -7.89313 27731 ft 402 kts 200°
2026-05-04 17:35 42.24433 -7.92263 26492 ft 389 kts 200°
2026-05-04 17:35 42.19319 -7.94157 25628 ft 365 kts 200°
2026-05-04 17:35 42.16932 -7.95036 25258 ft 345 kts 200°
2026-05-04 17:36 42.14669 -7.95869 24911 ft 329 kts 200°
2026-05-04 17:36 42.12489 -7.96675 24561 ft 326 kts 201°
2026-05-04 17:36 42.10224 -7.97527 24288 ft 351 kts 201°
2026-05-04 17:36 42.07770 -7.98455 23912 ft 377 kts 201°
2026-05-04 17:37 42.05206 -7.99409 23458 ft 384 kts 200°
2026-05-04 17:37 42.02709 -8.00325 22994 ft 382 kts 200°
2026-05-04 17:37 42.00157 -8.01256 22567 ft 378 kts 200°
2026-05-04 17:37 41.97635 -8.02177 22175 ft 373 kts 200°
2026-05-04 17:38 41.95139 -8.03091 21774 ft 369 kts 200°
2026-05-04 17:38 41.92675 -8.03996 21374 ft 365 kts 200°
2026-05-04 17:38 41.90235 -8.04893 20980 ft 362 kts 201°
2026-05-04 17:38 41.87849 -8.05769 20600 ft 358 kts 200°
2026-05-04 17:39 41.83085 -8.07516 19846 ft 352 kts 200°
2026-05-04 17:39 41.80752 -8.08517 19246 ft 351 kts 208°
2026-05-04 17:39 41.78617 -8.10028 18857 ft 345 kts 214°
2026-05-04 17:40 41.76564 -8.11693 18457 ft 343 kts 215°
2026-05-04 17:40 41.74517 -8.13315 18053 ft 342 kts 214°
2026-05-04 17:40 41.72456 -8.14891 17631 ft 339 kts 213°
2026-05-04 17:40 41.70400 -8.16428 17241 ft 338 kts 211°
2026-05-04 17:41 41.68239 -8.17673 16858 ft 338 kts 204°
2026-05-04 17:41 41.66018 -8.18671 16486 ft 336 kts 202°
2026-05-04 17:41 41.63799 -8.19611 16127 ft 333 kts 202°
2026-05-04 17:41 41.61600 -8.20551 15773 ft 330 kts 202°
2026-05-04 17:42 41.59425 -8.21504 15416 ft 327 kts 202°
2026-05-04 17:42 41.57994 -8.22141 15165 ft 326 kts 202°
2026-05-04 17:42 41.55156 -8.23421 14703 ft 323 kts 202°
2026-05-04 17:42 41.53033 -8.24386 14352 ft 321 kts 202°
2026-05-04 17:43 41.50920 -8.25349 14005 ft 320 kts 202°
2026-05-04 17:43 41.48817 -8.26309 13608 ft 318 kts 202°
2026-05-04 17:43 41.47430 -8.26940 13349 ft 317 kts 203°
2026-05-04 17:43 41.44684 -8.28188 13115 ft 311 kts 203°
2026-05-04 17:44 41.43293 -8.28822 13109 ft 317 kts 203°
2026-05-04 17:44 41.41171 -8.29792 13074 ft 326 kts 203°
2026-05-04 17:44 41.39013 -8.30773 13076 ft 328 kts 202°
2026-05-04 17:44 41.36859 -8.31748 13061 ft 326 kts 203°
2026-05-04 17:45 41.34716 -8.32717 13060 ft 324 kts 202°
2026-05-04 17:45 41.32595 -8.33676 12908 ft 324 kts 202°
2026-05-04 17:45 41.30453 -8.34647 12469 ft 326 kts 202°
2026-05-04 17:45 41.28320 -8.35614 12332 ft 319 kts 202°
2026-05-04 17:46 41.26278 -8.36533 12147 ft 298 kts 202°
2026-05-04 17:46 41.24374 -8.37386 11712 ft 282 kts 203°
2026-05-04 17:46 41.22539 -8.38214 11120 ft 275 kts 203°
2026-05-04 17:46 41.20768 -8.39099 10427 ft 270 kts 206°
2026-05-04 17:47 41.18940 -8.39711 9643 ft 275 kts 185°
2026-05-04 17:47 41.17052 -8.39598 9172 ft 263 kts 179°
2026-05-04 17:47 41.15256 -8.39392 8895 ft 263 kts 179°
2026-05-04 17:47 41.13410 -8.39191 8629 ft 275 kts 179°
2026-05-04 17:48 41.11494 -8.38983 8351 ft 277 kts 179°
2026-05-04 17:48 41.09562 -8.38777 7961 ft 280 kts 179°
2026-05-04 17:48 41.07613 -8.38586 7536 ft 283 kts 179°
2026-05-04 17:48 41.05647 -8.38391 7172 ft 284 kts 179°
2026-05-04 17:49 41.03671 -8.38185 6790 ft 285 kts 179°
2026-05-04 17:49 41.01697 -8.37971 6454 ft 285 kts 179°
2026-05-04 17:49 40.99747 -8.37754 6252 ft 280 kts 179°
2026-05-04 17:49 40.97751 -8.37532 6302 ft 299 kts 178°
2026-05-04 17:50 40.95544 -8.37316 6361 ft 337 kts 179°
2026-05-04 17:50 40.93074 -8.37103 6418 ft 374 kts 179°
2026-05-04 17:50 40.90488 -8.36895 6459 ft 364 kts 179°
2026-05-04 17:50 40.87998 -8.36685 6341 ft 352 kts 179°
2026-05-04 17:51 40.85615 -8.36600 6212 ft 332 kts 191°
2026-05-04 17:51 40.83543 -8.37600 5950 ft 314 kts 220°
2026-05-04 17:51 40.82136 -8.39673 5893 ft 301 kts 242°
2026-05-04 17:51 40.81298 -8.42248 5905 ft 318 kts 256°
2026-05-04 17:52 40.80919 -8.45271 5945 ft 351 kts 270°
2026-05-04 17:52 40.81301 -8.48562 6131 ft 376 kts 290°
2026-05-04 17:52 40.82606 -8.51605 6766 ft 383 kts 309°